This is the latest recevied weather packets stored in our database for station/object N6WDO. If no packets are shown the sender has not sent any weather packets the latest 10 day(s).
| Time | Temp. | Humidity | Pressure | Rain* | Wind** | Luminosity | Snow |
|---|---|---|---|---|---|---|---|
| 1777938172 | 11.67° C | 88% | 1015.6 hPa | 0 mm | - | 153 W/m² | - |
| 1777937868 | 11.67° C | 88% | 1015.8 hPa | 0 mm | - | 139 W/m² | - |
| 1777937563 | 11.11° C | 89% | 1015.8 hPa | 0 mm | - | 131 W/m² | - |
| 1777937261 | 11.67° C | 89% | 1015.8 hPa | 0 mm | - | 130 W/m² | - |
| 1777936958 | 11.67° C | 88% | 1015.8 hPa | 0 mm | - | 153 W/m² | - |
| 1777936655 | 11.67° C | 89% | 1015.8 hPa | 0 mm | - | 157 W/m² | - |
| 1777936351 | 11.67° C | 87% | 1015.8 hPa | 0 mm | - | 174 W/m² | - |
| 1777936047 | 11.67° C | 87% | 1016.1 hPa | 0 mm | - | 180 W/m² | - |
| 1777935746 | 11.11° C | 89% | 1015.9 hPa | 0 mm | - | 169 W/m² | - |
| 1777935444 | 11.11° C | 90% | 1016.2 hPa | 0 mm | - | 146 W/m² | - |
| 1777935140 | 11.11° C | 90% | 1016.1 hPa | 0 mm | - | 125 W/m² | - |
| 1777934837 | 11.11° C | 90% | 1016 hPa | 0 mm | - | 128 W/m² | - |
| 1777934535 | 10.56° C | 91% | 1015.9 hPa | 0 mm | - | 117 W/m² | - |
| 1777934231 | 11.11° C | 90% | 1016.1 hPa | 0 mm | - | 132 W/m² | - |
| 1777933926 | 10.56° C | 91% | 1016.2 hPa | 0 mm | - | 156 W/m² | - |
| 1777933624 | 10.56° C | 91% | 1016.2 hPa | 0 mm | - | 137 W/m² | - |
| 1777933320 | 10.56° C | 91% | 1016.3 hPa | 0 mm | - | 125 W/m² | - |
| 1777933018 | 10.56° C | 91% | 1016.3 hPa | 0 mm | - | 131 W/m² | - |
| 1777932715 | 10.56° C | 91% | 1016.3 hPa | 0 mm | - | 171 W/m² | - |
| 1777932411 | 10.56° C | 92% | 1016.2 hPa | 0 mm | - | 156 W/m² | - |
| 1777932109 | 10.56° C | 92% | 1016.3 hPa | 0 mm | - | 145 W/m² | - |
| 1777931805 | 10° C | 93% | 1016.5 hPa | 1.27 mm | - | 138 W/m² | - |
| 1777931502 | 10° C | 93% | 1016.7 hPa | 1.27 mm | - | 96 W/m² | - |
| 1777931198 | 10° C | 93% | 1016.9 hPa | 0 mm | - | 80 W/m² | - |
| 1777930894 | 10° C | 93% | 1016.8 hPa | 0 mm | - | 67 W/m² | - |
* Rain latest hour (hover to see other rain measurements)
** Current wind speed in m/s (hover to see current wind gust speed)